Location: Unspecified
(47.2333°N, 39.7000°E)
Time: 03:42:49
(UTC+00:00)

ISS - Visible Passes

Search period start: 05 March 2021 00:00
Search period end: 15 March 2021 00:00
Orbit: 417 x 422 km, 51.6° (Epoch: 04 March)

Date Brightness Start Highest point End Pass type
(mag) Time Alt. Az. Time Alt. Az. Time Alt. Az.
05 Mar -0.4 00:51:09 13° ENE 00:51:09 13° ENE 00:51:35 10° ENE visible
05 Mar -2.8 02:24:06 25° NW 02:25:35 41° N 02:28:48 10° E visible
06 Mar -2.4 01:38:27 36° NNE 01:38:27 36° NNE 01:41:10 10° ENE visible
06 Mar -3.7 03:11:42 10° WNW 03:15:04 83° NNE 03:18:27 10° ESE visible
07 Mar -0.6 00:52:49 15° ENE 00:52:49 15° ENE 00:53:33 10° ENE visible
07 Mar -3.4 02:25:47 25° NW 02:27:34 61° NNE 02:30:54 10° ESE visible
08 Mar -2.9 01:40:12 48° NNE 01:40:12 48° NNE 01:43:17 10° E visible
08 Mar -3.3 03:13:35 10° WNW 03:16:50 45° SSW 03:20:03 10° SE visible
09 Mar -0.8 00:54:42 17° ENE 00:54:42 17° ENE 00:55:38 10° E visible
09 Mar -3.8 02:27:40 26° WNW 02:29:23 69° SSW 02:32:43 10° SE visible
10 Mar -3.5 01:42:15 68° E 01:42:15 68° E 01:45:15 10° ESE visible
11 Mar -0.9 00:56:57 15° E 00:56:57 15° E 00:57:41 10° ESE visible
11 Mar -2.8 02:29:57 24° WSW 02:31:00 29° SW 02:33:58 10° SSE visible
12 Mar -2.5 01:44:48 30° SSE 01:44:48 30° SSE 01:46:49 10° SE visible
13 Mar -1.6 02:32:49 12° SW 02:32:49 12° SW 02:33:54 10° SSW visible
